Terminal Aerodrome Forecast
Issued by NWS Milwaukee/Sullivan, WI

Home | Current Version | Previous Version | Text Only | Print | Product List | Glossary On
Versions: 1 2 3 4 5 6 7 8 9 10 11 12 13 14 15 16 17 18 19 20 21 22 23 24 25 26 27 28 29 30 31 32 33 34 35 36 37 38 39 40 41 42 43 44 45 46 47 48 49 50
000
FTUS43 KMKX 272320
TAFMSN
TAF
KMSN 272320Z 2800/2824 VRB03KT P6SM SCT080 BKN250
     FM281000 VRB03KT 6SM BR BKN120
     FM281400 13009KT P6SM BKN090
     FM282200 13008KT P6SM VCTS SCT035 OVC050CB=

USA.gov is the U.S. government's official web portal to all federal, state and local government web resources and services.